User: anonymous   Login
Location: Red Shale Campground
(45.5700°N, 106.1600°W)
Time: 19:07:19
(UTC-06:00)
Language:

FENGYUN 3A - Orbit

View from above orbital plane
View from above orbital plane
View from above satellite
View from above satellite

Ground track
Ground track

The orbit data is extracted from the following two-line orbital elements,

1 32958U 08026A   15087.54579997  .00000097  00000-0  66036-4 0  9990
2 32958 098.5133 141.1959 0010460 111.6382 248.5916 14.19538611354186
Epoch (UTC): 28 March 2015 13:05:57
Eccentricity: 0.0010460
inclination: 98.5133°
perigee height: 819 km
apogee height: 834 km
right ascension of ascending node: 141.1959°
argument of perigee: 111.6382°
revolutions per day: 14.19538611
mean anomaly at epoch: 248.5916°
orbit number at epoch: 35418

The dashed part of the orbit path shows where the satellite is in the earth's shadow,  

DLR